Weather History for North Platte, NE

Change the Weather History Date:

Friday, March 8, 2013

  Actual Average Record
Temperature  
Mean Temperature 37 °F 36 °F  
Max Temperature 52 °F 50 °F 76 °F (1911)
Min Temperature 22 °F 21 °F -6 °F (1996)
Degree Days  
Heating Degree Days 28 29  
Month to date heating degree days 233 244  
Since 1 July heating degree days 5193 5272  
Cooling Degree Days 0 0  
Month to date cooling degree days 0 0  
Year to date cooling degree days 0 0  
Moisture  
Dew Point 31 °F    
Average Humidity 68    
Maximum Humidity 88    
Minimum Humidity 48    
Precipitation  
Precipitation 0.00 in 0.03 in 0.89 in (1893)
Month to date precipitation 0.03 0.22  
Year to date precipitation 1.31 1.06  
Snow  
Snow 0.00 in 0.20 in 1.20 in (2002)
Month to date snowfall 0.5 1.3  
Since 1 July snowfall 20.4 22.2  
Snow Depth 0.00 in    
Sea Level Pressure  
Sea Level Pressure 29.93 in    
Wind  
Wind Speed 8 mph (East)    
Max Wind Speed 20 mph    
Max Gust Speed 25 mph    
Visibility 8 miles    
Events      
T = Trace of Precipitation, MM = Missing Value Source: NWS Daily Summary

Daily Weather History Graph

Daily Weather History Graph

Search for Another Location

Airport:

Trip Planner

Search our weather history database for the weather conditions in past years. The results will help you decide how hot, cold, wet, or windy it might be!

Date:

Astronomy

Mar. 08, 2013 Rise Set
Actual Time 7:05 AM CST 6:41 PM CST
Civil Twilight 6:37 AM CST 7:09 PM CST
Nautical Twilight 6:06 AM CST 7:41 PM CST
Astronomical Twilight 5:34 AM CST 8:13 PM CST
Moon 4:52 AM CST (3/8) 3:37 PM CST (3/8)
Length of Visible Light 12h 31m
Length of Day
11h 36m
Waning Crescent, 11% of the Moon is Illuminated
Mar 8
Waning Crescent
Mar 11
New
Mar 19
First Quarter
Mar 27
Full
Apr 2
Last Quarter

Hourly Weather History & Observations

Time (CST) Temp. Windchill Dew Point Humidity Pressure Visibility Wind Dir Wind Speed Gust Speed Precip Events Conditions
12:53 AM 28.0 °F - 24.1 °F 85% 30.09 in 8.0 mi Calm Calm - N/A   Clear
1:53 AM 24.1 °F 19.7 °F 21.0 °F 88% 30.10 in 8.0 mi WSW 3.5 mph - N/A   Clear
2:53 AM 28.9 °F - 24.1 °F 82% 30.06 in 8.0 mi Calm Calm - N/A   Clear
3:53 AM 28.9 °F - 24.1 °F 82% 30.03 in 8.0 mi Calm Calm - N/A   Clear
4:53 AM 28.9 °F 20.4 °F 24.1 °F 82% 30.02 in 8.0 mi NNE 9.2 mph - N/A   Clear
5:53 AM 28.9 °F 21.1 °F 24.1 °F 82% 30.03 in 8.0 mi NE 8.1 mph - N/A   Clear
6:53 AM 27.0 °F 23.0 °F 23.0 °F 85% 30.08 in 7.0 mi ESE 3.5 mph - N/A   Clear
7:53 AM 30.0 °F 21.1 °F 25.0 °F 82% 30.05 in 5.0 mi NNE 10.4 mph - N/A   Haze
8:53 AM 32.0 °F 21.6 °F 27.0 °F 82% 30.04 in 6.0 mi NE 15.0 mph - N/A   Haze
9:53 AM 37.9 °F 30.9 °F 30.0 °F 73% 30.04 in 7.0 mi East 10.4 mph - N/A   Clear
10:53 AM 39.9 °F 33.9 °F 30.0 °F 68% 30.02 in 8.0 mi East 9.2 mph - N/A   Clear
11:53 AM 46.0 °F 40.6 °F 30.0 °F 54% 29.97 in 9.0 mi East 11.5 mph 18.4 mph N/A   Clear
12:53 PM 48.0 °F - 30.9 °F 52% 29.95 in 10.0 mi East 16.1 mph 23.0 mph N/A   Clear
1:53 PM 51.1 °F - 32.0 °F 48% 29.89 in 10.0 mi ESE 13.8 mph 21.9 mph N/A   Clear
2:53 PM 50.0 °F - 33.1 °F 52% 29.87 in 10.0 mi ESE 13.8 mph - N/A   Clear
3:53 PM 51.1 °F - 34.0 °F 52% 29.86 in 10.0 mi ESE 17.3 mph - N/A   Clear
4:53 PM 48.9 °F - 36.0 °F 61% 29.84 in 10.0 mi East 10.4 mph - N/A   Scattered Clouds
5:53 PM 48.9 °F - 37.9 °F 66% 29.86 in 9.0 mi East 6.9 mph - N/A   Clear
6:53 PM 46.0 °F 42.5 °F 37.0 °F 71% 29.84 in 10.0 mi ENE 6.9 mph - N/A   Clear
7:53 PM 45.0 °F 43.5 °F 37.0 °F 74% 29.84 in 10.0 mi NNE 3.5 mph - N/A   Mostly Cloudy
8:53 PM 45.0 °F 41.8 °F 36.0 °F 71% 29.81 in 10.0 mi ENE 5.8 mph - N/A   Overcast
9:11 PM 46.4 °F 42.4 °F 37.4 °F 71% 29.77 in 10.0 mi NE 8.1 mph - N/A   Overcast
9:53 PM 46.0 °F 41.4 °F 37.0 °F 71% 29.78 in 9.0 mi ENE 9.2 mph - N/A   Overcast
10:53 PM 46.9 °F - 39.9 °F 77% 29.75 in 9.0 mi ENE 8.1 mph - N/A   Overcast
11:53 PM 48.0 °F - 45.0 °F 89% 29.70 in 5.0 mi East 9.2 mph - N/A   Overcast